Powrót do katalogu

STARLINK-34242

AktywnyŁącznośćVLEO
NORAD 64727·PAYLOAD·🇺🇸 United States

Wystrzelony Jul 2, 2025 z Cape Canaveral Space Force Station

Loading…

Następne Przeloty (najbliższe 24 godziny)

TLE

ŚwieżeSource: CelesTrak SupGP

Epoka: Sep 15, 2026, 03:38 UTC

1 64727C 25144D   26258.15187500  .00054086  00000+0  15975-2 0  2581
2 64727  53.1595  20.3600 0001117  86.9489  90.7001 15.34373381    17

Śledź STARLINK-34242 w czasie rzeczywistym z AllMySat

Download on the App Store